Location: Les Jeannots
(43.2262°N, 5.5774°E)
Time: 17:24:18
(UTC+00:00)

Cosmos 1455 - Pass Details

Date: 05 July 2020
Orbit: 500 x 521 km, 82.5° (Epoch: 12 August)

Event Time Altitude Azimuth Distance (km) Brightness Sun altitude
Rises 20:07:01 0° 357° (N) 2,644 6.5 -7.6°
Reaches altitude 10° 20:09:13 10° 3° (N) 1,755 5.5 -7.9°
Maximum altitude 20:12:57 48° 79° (ENE) 682 2.6 -8.4°
Enters shadow 20:16:40 10° 155° (SSE) 1,742 4.3 -8.9°
